Time,TemperatureF,DewpointF,PressureIn,WindDirection,WindDirectionDegrees,WindSpeedMPH,WindSpeedGustMPH,Humidity,HourlyPrecipIn,Conditions,Clouds,dailyrainin,SoftwareType,DateUTC
2013-10-29 00:01:00,58.0,23.9,29.70,SSE,158,3.0,7.0,27,0.00,,,0.00,WUHU216HW,2013-10-29 06:01:00,
2013-10-29 00:06:00,57.8,23.7,29.70,SSE,158,3.0,6.0,27,0.00,,,0.00,WUHU216HW,2013-10-29 06:06:00,
2013-10-29 00:11:00,57.6,23.6,29.70,SE,135,0.0,4.0,27,0.00,,,0.00,WUHU216HW,2013-10-29 06:11:00,
2013-10-29 00:16:00,57.6,24.5,29.70,SSE,158,0.0,3.0,28,0.00,,,0.00,WUHU216HW,2013-10-29 06:16:00,
2013-10-29 00:21:00,57.2,24.2,29.70,ESE,113,0.0,1.0,28,0.00,,,0.00,WUHU216HW,2013-10-29 06:21:00,
2013-10-29 00:26:00,57.1,24.0,29.70,ESE,113,0.0,1.0,28,0.00,,,0.00,WUHU216HW,2013-10-29 06:26:00,
2013-10-29 00:31:00,56.9,23.9,29.70,East,90,1.0,2.0,28,0.00,,,0.00,WUHU216HW,2013-10-29 06:31:00,
2013-10-29 00:36:00,56.5,24.5,29.70,ENE,68,3.0,3.0,29,0.00,,,0.00,WUHU216HW,2013-10-29 06:36:00,
2013-10-29 00:41:00,56.3,24.3,29.70,SE,135,3.0,3.0,29,0.00,,,0.00,WUHU216HW,2013-10-29 06:41:00,
2013-10-29 00:46:00,56.2,24.2,29.71,East,90,2.0,3.0,29,0.00,,,0.00,WUHU216HW,2013-10-29 06:46:00,
2013-10-29 00:51:00,56.0,24.0,29.70,ESE,113,2.0,3.0,29,0.00,,,0.00,WUHU216HW,2013-10-29 06:51:00,
2013-10-29 00:56:00,55.8,23.9,29.70,ESE,113,1.0,3.0,29,0.00,,,0.00,WUHU216HW,2013-10-29 06:56:00,
2013-10-29 01:01:00,55.8,23.9,29.71,SW,225,0.0,2.0,29,0.00,,,0.00,WUHU216HW,2013-10-29 07:01:00,
2013-10-29 01:06:00,55.8,24.9,29.71,SSW,203,0.0,1.0,30,0.00,,,0.00,WUHU216HW,2013-10-29 07:06:00,
2013-10-29 01:11:00,55.8,24.9,29.70,ESE,113,0.0,1.0,30,0.00,,,0.00,WUHU216HW,2013-10-29 07:11:00,
2013-10-29 01:16:00,55.6,24.7,29.70,South,180,1.0,1.0,30,0.00,,,0.00,WUHU216HW,2013-10-29 07:16:00,
2013-10-29 01:21:00,55.6,24.7,29.70,ESE,113,3.0,3.0,30,0.00,,,0.00,WUHU216HW,2013-10-29 07:21:00,
2013-10-29 01:26:00,55.6,24.7,29.70,ESE,113,1.0,3.0,30,0.00,,,0.00,WUHU216HW,2013-10-29 07:26:00,
2013-10-29 01:31:00,55.6,24.7,29.71,SSW,203,1.0,3.0,30,0.00,,,0.00,WUHU216HW,2013-10-29 07:31:00,
2013-10-29 01:36:00,55.8,24.9,29.71,ESE,113,1.0,2.0,30,0.00,,,0.00,WUHU216HW,2013-10-29 07:36:00,
2013-10-29 01:41:00,55.8,24.9,29.71,East,90,1.0,2.0,30,0.00,,,0.00,WUHU216HW,2013-10-29 07:41:00,
2013-10-29 01:46:00,55.8,24.9,29.71,East,90,1.0,2.0,30,0.00,,,0.00,WUHU216HW,2013-10-29 07:46:00,
2013-10-29 01:51:00,55.8,24.9,29.71,South,180,2.0,3.0,30,0.00,,,0.00,WUHU216HW,2013-10-29 07:51:00,
2013-10-29 01:56:00,56.0,24.9,29.71,SE,135,1.0,4.0,30,0.00,,,0.00,WUHU216HW,2013-10-29 07:56:00,
2013-10-29 02:01:00,56.0,24.9,29.71,ESE,113,2.0,4.0,30,0.00,,,0.00,WUHU216HW,2013-10-29 08:01:00,
2013-10-29 02:06:00,56.0,24.9,29.71,ESE,113,5.0,5.0,30,0.00,,,0.00,WUHU216HW,2013-10-29 08:06:00,
2013-10-29 02:11:00,56.0,24.9,29.71,ESE,113,3.0,5.0,30,0.00,,,0.00,WUHU216HW,2013-10-29 08:11:00,
2013-10-29 02:16:00,56.0,24.9,29.71,ESE,113,3.0,5.0,30,0.00,,,0.00,WUHU216HW,2013-10-29 08:16:00,
2013-10-29 02:21:00,56.2,25.1,29.71,SE,135,4.0,5.0,30,0.00,,,0.00,WUHU216HW,2013-10-29 08:21:00,
2013-10-29 02:26:00,56.2,25.1,29.70,SE,135,4.0,5.0,30,0.00,,,0.00,WUHU216HW,2013-10-29 08:26:00,
2013-10-29 02:31:00,56.2,25.1,29.71,East,90,2.0,6.0,30,0.00,,,0.00,WUHU216HW,2013-10-29 08:31:00,
2013-10-29 02:36:00,56.2,25.1,29.71,ENE,68,1.0,6.0,30,0.00,,,0.00,WUHU216HW,2013-10-29 08:36:00,
2013-10-29 02:41:00,56.0,24.9,29.71,ESE,113,1.0,4.0,30,0.00,,,0.00,WUHU216HW,2013-10-29 08:41:00,
2013-10-29 02:46:00,55.8,24.9,29.70,ENE,68,3.0,5.0,30,0.00,,,0.00,WUHU216HW,2013-10-29 08:46:00,
2013-10-29 02:51:00,55.8,25.5,29.71,SE,135,4.0,5.0,31,0.00,,,0.00,WUHU216HW,2013-10-29 08:51:00,
2013-10-29 02:56:00,55.8,24.9,29.70,ENE,68,2.0,7.0,30,0.00,,,0.00,WUHU216HW,2013-10-29 08:56:00,
2013-10-29 03:01:00,55.6,25.4,29.70,East,90,3.0,7.0,31,0.00,,,0.00,WUHU216HW,2013-10-29 09:01:00,
2013-10-29 03:06:00,55.6,25.4,29.71,SE,135,2.0,5.0,31,0.00,,,0.00,WUHU216HW,2013-10-29 09:06:00,
2013-10-29 03:11:00,55.4,25.2,29.70,ENE,68,1.0,5.0,31,0.00,,,0.00,WUHU216HW,2013-10-29 09:11:00,
2013-10-29 03:16:00,55.3,25.0,29.71,ESE,113,1.0,3.0,31,0.00,,,0.00,WUHU216HW,2013-10-29 09:16:00,
2013-10-29 03:21:00,55.1,24.9,29.70,ESE,113,1.0,4.0,31,0.00,,,0.00,WUHU216HW,2013-10-29 09:21:00,
2013-10-29 03:26:00,55.1,25.6,29.70,ESE,113,1.0,4.0,32,0.00,,,0.00,WUHU216HW,2013-10-29 09:26:00,
2013-10-29 03:31:00,54.9,25.5,29.71,SE,135,2.0,3.0,32,0.00,,,0.00,WUHU216HW,2013-10-29 09:31:00,
2013-10-29 03:36:00,54.9,25.5,29.71,SE,135,1.0,3.0,32,0.00,,,0.00,WUHU216HW,2013-10-29 09:36:00,
2013-10-29 03:41:00,54.7,25.3,29.71,ESE,113,2.0,3.0,32,0.00,,,0.00,WUHU216HW,2013-10-29 09:41:00,
2013-10-29 03:46:00,54.7,25.3,29.71,ESE,113,2.0,3.0,32,0.00,,,0.00,WUHU216HW,2013-10-29 09:46:00,
2013-10-29 03:51:00,54.5,25.1,29.71,SE,135,0.0,3.0,32,0.00,,,0.00,WUHU216HW,2013-10-29 09:51:00,
2013-10-29 03:56:00,54.4,25.0,29.71,SSE,158,0.0,3.0,32,0.00,,,0.00,WUHU216HW,2013-10-29 09:56:00,
2013-10-29 04:01:00,54.0,25.4,29.71,ESE,113,2.0,2.0,33,0.00,,,0.00,WUHU216HW,2013-10-29 10:01:00,
2013-10-29 04:06:00,53.8,25.2,29.71,ESE,113,0.0,2.0,33,0.00,,,0.00,WUHU216HW,2013-10-29 10:06:00,
2013-10-29 04:11:00,53.6,25.1,29.71,SE,135,0.0,2.0,33,0.00,,,0.00,WUHU216HW,2013-10-29 10:11:00,
2013-10-29 04:16:00,53.6,25.1,29.71,South,180,0.0,2.0,33,0.00,,,0.00,WUHU216HW,2013-10-29 10:16:00,
2013-10-29 04:21:00,53.3,24.8,29.71,ESE,113,1.0,1.0,33,0.00,,,0.00,WUHU216HW,2013-10-29 10:21:00,
2013-10-29 04:26:00,53.1,24.6,29.71,SSE,158,0.0,2.0,33,0.00,,,0.00,WUHU216HW,2013-10-29 10:26:00,
2013-10-29 04:31:00,53.1,24.6,29.71,ESE,113,2.0,3.0,33,0.00,,,0.00,WUHU216HW,2013-10-29 10:31:00,
2013-10-29 04:36:00,52.9,25.1,29.71,SE,135,0.0,3.0,34,0.00,,,0.00,WUHU216HW,2013-10-29 10:36:00,
2013-10-29 04:41:00,52.7,24.9,29.71,SE,135,1.0,2.0,34,0.00,,,0.00,WUHU216HW,2013-10-29 10:41:00,
2013-10-29 04:46:00,52.6,24.9,29.71,ENE,68,0.0,2.0,34,0.00,,,0.00,WUHU216HW,2013-10-29 10:46:00,
2013-10-29 04:51:00,52.4,24.7,29.71,SE,135,0.0,3.0,34,0.00,,,0.00,WUHU216HW,2013-10-29 10:51:00,
2013-10-29 04:56:00,52.2,24.5,29.71,ESE,113,0.0,3.0,34,0.00,,,0.00,WUHU216HW,2013-10-29 10:56:00,
2013-10-29 05:01:00,52.0,25.7,29.71,SE,135,0.0,2.0,36,0.00,,,0.00,WUHU216HW,2013-10-29 11:01:00,
2013-10-29 05:06:00,51.8,24.8,29.71,ESE,113,0.0,2.0,35,0.00,,,0.00,WUHU216HW,2013-10-29 11:06:00,
2013-10-29 05:11:00,51.3,25.0,29.71,East,90,1.0,2.0,36,0.00,,,0.00,WUHU216HW,2013-10-29 11:11:00,
2013-10-29 05:16:00,51.1,24.8,29.72,ENE,68,1.0,2.0,36,0.00,,,0.00,WUHU216HW,2013-10-29 11:16:00,
2013-10-29 05:21:00,50.9,24.8,29.71,ESE,113,2.0,3.0,36,0.00,,,0.00,WUHU216HW,2013-10-29 11:21:00,
2013-10-29 05:26:00,50.9,25.4,29.72,East,90,1.0,3.0,37,0.00,,,0.00,WUHU216HW,2013-10-29 11:26:00,
2013-10-29 05:31:00,50.9,25.4,29.72,ESE,113,0.0,3.0,37,0.00,,,0.00,WUHU216HW,2013-10-29 11:31:00,
2013-10-29 05:36:00,50.8,25.2,29.72,SE,135,0.0,3.0,37,0.00,,,0.00,WUHU216HW,2013-10-29 11:36:00,
2013-10-29 05:41:00,50.8,25.2,29.72,SE,135,0.0,4.0,37,0.00,,,0.00,WUHU216HW,2013-10-29 11:41:00,
2013-10-29 05:46:00,50.8,25.2,29.72,ENE,68,1.0,4.0,37,0.00,,,0.00,WUHU216HW,2013-10-29 11:46:00,
2013-10-29 05:51:00,50.8,25.2,29.72,East,90,0.0,2.0,37,0.00,,,0.00,WUHU216HW,2013-10-29 11:51:00,
2013-10-29 05:56:00,50.8,25.2,29.72,ESE,113,1.0,3.0,37,0.00,,,0.00,WUHU216HW,2013-10-29 11:56:00,
2013-10-29 06:01:00,50.8,25.2,29.72,ESE,113,2.0,3.0,37,0.00,,,0.00,WUHU216HW,2013-10-29 12:01:00,
2013-10-29 06:06:00,50.9,25.4,29.73,ESE,113,1.0,3.0,37,0.00,,,0.00,WUHU216HW,2013-10-29 12:06:00,
2013-10-29 06:11:00,50.9,25.4,29.73,ESE,113,0.0,2.0,37,0.00,,,0.00,WUHU216HW,2013-10-29 12:11:00,
2013-10-29 06:16:00,51.1,25.6,29.73,SE,135,0.0,2.0,37,0.00,,,0.00,WUHU216HW,2013-10-29 12:16:00,
2013-10-29 06:21:00,50.9,25.4,29.73,SE,135,0.0,1.0,37,0.00,,,0.00,WUHU216HW,2013-10-29 12:21:00,
2013-10-29 06:26:00,50.9,25.4,29.73,SE,135,0.0,1.0,37,0.00,,,0.00,WUHU216HW,2013-10-29 12:26:00,
2013-10-29 06:31:00,50.8,25.2,29.73,ESE,113,1.0,1.0,37,0.00,,,0.00,WUHU216HW,2013-10-29 12:31:00,
2013-10-29 06:36:00,50.8,25.2,29.73,SE,135,1.0,2.0,37,0.00,,,0.00,WUHU216HW,2013-10-29 12:36:00,
2013-10-29 06:41:00,50.6,25.7,29.73,ESE,113,1.0,2.0,38,0.00,,,0.00,WUHU216HW,2013-10-29 12:41:00,
2013-10-29 06:46:00,50.6,25.7,29.73,ESE,113,1.0,2.0,38,0.00,,,0.00,WUHU216HW,2013-10-29 12:46:00,
2013-10-29 06:51:00,50.6,25.7,29.73,ESE,113,0.0,2.0,38,0.00,,,0.00,WUHU216HW,2013-10-29 12:51:00,
2013-10-29 06:56:00,50.6,25.7,29.73,SE,135,2.0,2.0,38,0.00,,,0.00,WUHU216HW,2013-10-29 12:56:00,
2013-10-29 07:01:00,50.8,25.2,29.73,ESE,113,0.0,2.0,37,0.00,,,0.00,WUHU216HW,2013-10-29 13:01:00,
2013-10-29 07:06:00,50.8,25.2,29.74,East,90,0.0,2.0,37,0.00,,,0.00,WUHU216HW,2013-10-29 13:06:00,
2013-10-29 07:11:00,50.8,25.2,29.74,East,90,1.0,3.0,37,0.00,,,0.00,WUHU216HW,2013-10-29 13:11:00,
2013-10-29 07:16:00,50.8,25.2,29.74,ESE,113,1.0,3.0,37,0.00,,,0.00,WUHU216HW,2013-10-29 13:16:00,
2013-10-29 07:21:00,50.8,25.2,29.74,ESE,113,0.0,3.0,37,0.00,,,0.00,WUHU216HW,2013-10-29 13:21:00,
2013-10-29 07:26:00,50.8,25.2,29.75,SW,225,0.0,3.0,37,0.00,,,0.00,WUHU216HW,2013-10-29 13:26:00,
2013-10-29 07:31:00,50.4,25.6,29.74,ESE,113,1.0,1.0,38,0.00,,,0.00,WUHU216HW,2013-10-29 13:31:00,
2013-10-29 07:36:00,49.9,25.1,29.74,SE,135,0.0,1.0,38,0.00,,,0.00,WUHU216HW,2013-10-29 13:36:00,
2013-10-29 07:41:00,49.5,24.9,29.74,SE,135,0.0,1.0,38,0.00,,,0.00,WUHU216HW,2013-10-29 13:41:00,
2013-10-29 07:46:00,49.3,24.7,29.75,ESE,113,0.0,1.0,38,0.00,,,0.00,WUHU216HW,2013-10-29 13:46:00,
2013-10-29 07:51:00,49.5,24.9,29.75,East,90,0.0,1.0,38,0.00,,,0.00,WUHU216HW,2013-10-29 13:51:00,
2013-10-29 07:56:00,49.5,24.9,29.75,ESE,113,0.0,1.0,38,0.00,,,0.00,WUHU216HW,2013-10-29 13:56:00,
2013-10-29 08:01:00,49.3,25.3,29.75,ENE,68,0.0,2.0,39,0.00,,,0.00,WUHU216HW,2013-10-29 14:01:00,
2013-10-29 08:06:00,49.1,25.1,29.75,ESE,113,0.0,2.0,39,0.00,,,0.00,WUHU216HW,2013-10-29 14:06:00,
2013-10-29 08:11:00,49.3,25.3,29.76,SE,135,1.0,2.0,39,0.00,,,0.00,WUHU216HW,2013-10-29 14:11:00,
2013-10-29 08:16:00,49.3,25.3,29.76,East,90,1.0,2.0,39,0.00,,,0.00,WUHU216HW,2013-10-29 14:16:00,
2013-10-29 08:21:00,49.1,25.1,29.76,East,90,1.0,3.0,39,0.00,,,0.00,WUHU216HW,2013-10-29 14:21:00,
2013-10-29 08:26:00,49.1,25.8,29.76,SE,135,1.0,3.0,40,0.00,,,0.00,WUHU216HW,2013-10-29 14:26:00,
2013-10-29 08:32:00,49.3,26.0,29.76,SE,135,0.0,3.0,40,0.00,,,0.00,WUHU216HW,2013-10-29 14:32:00,
2013-10-29 08:36:00,49.3,26.0,29.76,East,90,0.0,3.0,40,0.00,,,0.00,WUHU216HW,2013-10-29 14:36:00,
2013-10-29 08:41:00,49.7,25.7,29.76,WSW,248,0.0,3.0,39,0.00,,,0.00,WUHU216HW,2013-10-29 14:41:00,
2013-10-29 08:47:00,49.9,25.8,29.77,SE,135,0.0,3.0,39,0.00,,,0.00,WUHU216HW,2013-10-29 14:47:00,
2013-10-29 08:52:00,50.4,27.0,29.77,NNW,338,0.0,1.0,40,0.00,,,0.00,WUHU216HW,2013-10-29 14:52:00,
2013-10-29 08:57:00,51.1,27.6,29.78,SW,225,0.0,1.0,40,0.00,,,0.00,WUHU216HW,2013-10-29 14:57:00,
2013-10-29 09:01:00,52.9,29.3,29.78,WSW,248,1.0,2.0,40,0.00,,,0.00,WUHU216HW,2013-10-29 15:01:00,
2013-10-29 09:06:00,54.0,28.8,29.77,North,0,0.0,2.0,38,0.00,,,0.00,WUHU216HW,2013-10-29 15:06:00,
2013-10-29 09:12:00,54.7,29.4,29.77,NNE,23,0.0,1.0,38,0.00,,,0.00,WUHU216HW,2013-10-29 15:12:00,
2013-10-29 09:17:00,55.8,29.7,29.78,ENE,68,2.0,3.0,37,0.00,,,0.00,WUHU216HW,2013-10-29 15:17:00,
2013-10-29 09:22:00,57.2,30.3,29.78,SE,135,0.0,3.0,36,0.00,,,0.00,WUHU216HW,2013-10-29 15:22:00,
2013-10-29 09:26:00,58.3,29.9,29.78,East,90,0.0,2.0,34,0.00,,,0.00,WUHU216HW,2013-10-29 15:26:00,
2013-10-29 09:31:00,59.2,30.7,29.78,NNW,338,0.0,2.0,34,0.00,,,0.00,WUHU216HW,2013-10-29 15:31:00,
2013-10-29 09:36:00,59.6,30.2,29.78,South,180,1.0,3.0,33,0.00,,,0.00,WUHU216HW,2013-10-29 15:36:00,
2013-10-29 09:41:00,60.1,30.0,29.78,SSE,158,3.0,3.0,32,0.00,,,0.00,WUHU216HW,2013-10-29 15:41:00,
2013-10-29 09:46:00,60.5,30.3,29.78,SSE,158,3.0,4.0,32,0.00,,,0.00,WUHU216HW,2013-10-29 15:46:00,
2013-10-29 09:51:00,61.0,30.8,29.78,NE,45,0.0,5.0,32,0.00,,,0.00,WUHU216HW,2013-10-29 15:51:00,
2013-10-29 09:56:00,61.7,30.7,29.78,ENE,68,1.0,5.0,31,0.00,,,0.00,WUHU216HW,2013-10-29 15:56:00,
2013-10-29 10:02:00,62.3,30.4,29.78,ESE,113,3.0,4.0,30,0.00,,,0.00,WUHU216HW,2013-10-29 16:02:00,
2013-10-29 10:07:00,62.3,30.4,29.77,South,180,4.0,4.0,30,0.00,,,0.00,WUHU216HW,2013-10-29 16:07:00,
2013-10-29 10:12:00,63.0,30.2,29.78,ESE,113,3.0,5.0,29,0.00,,,0.00,WUHU216HW,2013-10-29 16:12:00,
2013-10-29 10:17:00,63.5,30.6,29.77,SSE,158,2.0,5.0,29,0.00,,,0.00,WUHU216HW,2013-10-29 16:17:00,
2013-10-29 10:22:00,64.3,32.2,29.77,SSW,203,4.0,5.0,30,0.00,,,0.00,WUHU216HW,2013-10-29 16:22:00,
2013-10-29 10:27:00,65.0,32.9,29.77,SSE,158,1.0,5.0,30,0.00,,,0.00,WUHU216HW,2013-10-29 16:27:00,
2013-10-29 10:32:00,65.7,32.5,29.77,SSW,203,3.0,5.0,29,0.00,,,0.00,WUHU216HW,2013-10-29 16:32:00,
2013-10-29 10:37:00,66.2,33.0,29.77,SSE,158,4.0,5.0,29,0.00,,,0.00,WUHU216HW,2013-10-29 16:37:00,
2013-10-29 10:42:00,66.4,32.1,29.77,SSW,203,5.0,5.0,28,0.00,,,0.00,WUHU216HW,2013-10-29 16:42:00,
2013-10-29 10:47:00,66.8,32.5,29.76,SW,225,3.0,6.0,28,0.00,,,0.00,WUHU216HW,2013-10-29 16:47:00,
2013-10-29 10:52:00,67.3,33.9,29.76,SW,225,1.0,8.0,29,0.00,,,0.00,WUHU216HW,2013-10-29 16:52:00,
2013-10-29 10:57:00,67.5,33.0,29.76,SW,225,2.0,8.0,28,0.00,,,0.00,WUHU216HW,2013-10-29 16:57:00,
2013-10-29 11:01:00,67.9,33.3,29.76,West,270,1.0,5.0,28,0.00,,,0.00,WUHU216HW,2013-10-29 17:01:00,
2013-10-29 11:07:00,68.4,33.9,29.76,South,180,2.0,5.0,28,0.00,,,0.00,WUHU216HW,2013-10-29 17:07:00,
2013-10-29 11:12:00,68.8,32.1,29.76,SSW,203,4.0,7.0,26,0.00,,,0.00,WUHU216HW,2013-10-29 17:12:00,
2013-10-29 11:17:00,68.9,32.3,29.76,WSW,248,5.0,7.0,26,0.00,,,0.00,WUHU216HW,2013-10-29 17:17:00,
2013-10-29 11:21:00,68.9,32.3,29.76,SSE,158,3.0,8.0,26,0.00,,,0.00,WUHU216HW,2013-10-29 17:21:00,
2013-10-29 11:27:00,68.4,30.8,29.75,SE,135,2.0,8.0,25,0.00,,,0.00,WUHU216HW,2013-10-29 17:27:00,
2013-10-29 11:32:00,68.2,30.7,29.75,South,180,2.0,5.0,25,0.00,,,0.00,WUHU216HW,2013-10-29 17:32:00,
2013-10-29 11:37:00,68.0,30.5,29.75,WSW,248,1.0,5.0,25,0.00,,,0.00,WUHU216HW,2013-10-29 17:37:00,
2013-10-29 11:42:00,68.2,29.7,29.75,SSE,158,3.0,5.0,24,0.00,,,0.00,WUHU216HW,2013-10-29 17:42:00,
2013-10-29 11:47:00,68.9,29.3,29.74,South,180,4.0,5.0,23,0.00,,,0.00,WUHU216HW,2013-10-29 17:47:00,
2013-10-29 11:52:00,69.5,30.7,29.74,SSE,158,3.0,8.0,24,0.00,,,0.00,WUHU216HW,2013-10-29 17:52:00,
2013-10-29 11:57:00,69.7,29.9,29.74,SE,135,7.0,8.0,23,0.00,,,0.00,WUHU216HW,2013-10-29 17:57:00,
2013-10-29 12:02:00,69.5,29.7,29.74,WNW,293,3.0,7.0,23,0.00,,,0.00,WUHU216HW,2013-10-29 18:02:00,
2013-10-29 12:07:00,69.5,28.7,29.74,SSE,158,7.0,8.0,22,0.00,,,0.00,WUHU216HW,2013-10-29 18:07:00,
2013-10-29 12:12:00,69.8,30.1,29.73,South,180,4.0,8.0,23,0.00,,,0.00,WUHU216HW,2013-10-29 18:12:00,
2013-10-29 12:17:00,70.2,30.3,29.73,SSW,203,3.0,7.0,23,0.00,,,0.00,WUHU216HW,2013-10-29 18:17:00,
2013-10-29 12:22:00,70.0,29.2,29.72,SE,135,5.0,10.0,22,0.00,,,0.00,WUHU216HW,2013-10-29 18:22:00,
2013-10-29 12:27:00,69.7,28.9,29.72,South,180,6.0,10.0,22,0.00,,,0.00,WUHU216HW,2013-10-29 18:27:00,
2013-10-29 12:32:00,70.2,29.4,29.72,South,180,5.0,13.0,22,0.00,,,0.00,WUHU216HW,2013-10-29 18:32:00,
2013-10-29 12:37:00,70.9,29.9,29.72,SSE,158,9.0,13.0,22,0.00,,,0.00,WUHU216HW,2013-10-29 18:37:00,
2013-10-29 12:42:00,71.3,30.3,29.71,SSW,203,5.0,10.0,22,0.00,,,0.00,WUHU216HW,2013-10-29 18:42:00,
2013-10-29 12:47:00,71.5,29.4,29.71,SW,225,6.0,12.0,21,0.00,,,0.00,WUHU216HW,2013-10-29 18:47:00,
2013-10-29 12:52:00,71.6,29.4,29.71,South,180,4.0,12.0,21,0.00,,,0.00,WUHU216HW,2013-10-29 18:52:00,
2013-10-29 12:56:00,72.0,29.8,29.70,SSW,203,5.0,13.0,21,0.00,,,0.00,WUHU216HW,2013-10-29 18:56:00,
2013-10-29 13:01:00,72.2,30.0,29.70,South,180,5.0,13.0,21,0.00,,,0.00,WUHU216HW,2013-10-29 19:01:00,
2013-10-29 13:06:00,72.0,29.8,29.70,SSE,158,5.0,10.0,21,0.00,,,0.00,WUHU216HW,2013-10-29 19:06:00,
2013-10-29 13:11:00,72.2,30.0,29.70,SE,135,6.0,12.0,21,0.00,,,0.00,WUHU216HW,2013-10-29 19:11:00,
2013-10-29 13:16:00,72.4,30.2,29.69,SSE,158,3.0,12.0,21,0.00,,,0.00,WUHU216HW,2013-10-29 19:16:00,
2013-10-29 13:21:00,72.4,30.2,29.69,South,180,5.0,13.0,21,0.00,,,0.00,WUHU216HW,2013-10-29 19:21:00,
2013-10-29 13:26:00,72.2,27.3,29.68,SSE,158,9.0,13.0,19,0.00,,,0.00,WUHU216HW,2013-10-29 19:26:00,
2013-10-29 13:31:00,72.4,30.2,29.68,South,180,10.0,12.0,21,0.00,,,0.00,WUHU216HW,2013-10-29 19:31:00,
2013-10-29 13:36:00,72.0,29.8,29.68,SSE,158,4.0,10.0,21,0.00,,,0.00,WUHU216HW,2013-10-29 19:36:00,
2013-10-29 13:41:00,71.6,29.4,29.67,SE,135,4.0,11.0,21,0.00,,,0.00,WUHU216HW,2013-10-29 19:41:00,
2013-10-29 13:46:00,71.3,29.2,29.67,SSE,158,7.0,11.0,21,0.00,,,0.00,WUHU216HW,2013-10-29 19:46:00,
2013-10-29 13:51:00,71.6,29.4,29.67,SW,225,4.0,9.0,21,0.00,,,0.00,WUHU216HW,2013-10-29 19:51:00,
2013-10-29 13:56:00,71.6,28.4,29.66,SSE,158,3.0,12.0,20,0.00,,,0.00,WUHU216HW,2013-10-29 19:56:00,
2013-10-29 14:01:00,71.6,29.4,29.66,SW,225,8.0,12.0,21,0.00,,,0.00,WUHU216HW,2013-10-29 20:01:00,
2013-10-29 14:06:00,71.8,29.6,29.66,SW,225,4.0,9.0,21,0.00,,,0.00,WUHU216HW,2013-10-29 20:06:00,
2013-10-29 14:11:00,71.6,28.4,29.66,South,180,9.0,9.0,20,0.00,,,0.00,WUHU216HW,2013-10-29 20:11:00,
2013-10-29 14:16:00,71.6,29.4,29.66,SSW,203,5.0,9.0,21,0.00,,,0.00,WUHU216HW,2013-10-29 20:16:00,
2013-10-29 14:21:00,71.3,29.2,29.65,SW,225,4.0,9.0,21,0.00,,,0.00,WUHU216HW,2013-10-29 20:21:00,
2013-10-29 14:26:00,71.3,30.3,29.65,South,180,7.0,8.0,22,0.00,,,0.00,WUHU216HW,2013-10-29 20:26:00,
2013-10-29 14:31:00,71.3,30.3,29.64,SSW,203,3.0,8.0,22,0.00,,,0.00,WUHU216HW,2013-10-29 20:31:00,
2013-10-29 14:36:00,71.5,29.4,29.64,SSE,158,4.0,9.0,21,0.00,,,0.00,WUHU216HW,2013-10-29 20:36:00,
2013-10-29 14:41:00,71.3,28.2,29.64,ENE,68,5.0,9.0,20,0.00,,,0.00,WUHU216HW,2013-10-29 20:41:00,
2013-10-29 14:46:00,71.3,28.2,29.64,SSW,203,5.0,9.0,20,0.00,,,0.00,WUHU216HW,2013-10-29 20:46:00,
2013-10-29 14:51:00,71.3,29.2,29.64,WSW,248,5.0,9.0,21,0.00,,,0.00,WUHU216HW,2013-10-29 20:51:00,
2013-10-29 14:56:00,70.9,28.9,29.64,SE,135,1.0,8.0,21,0.00,,,0.00,WUHU216HW,2013-10-29 20:56:00,
2013-10-29 15:01:00,70.7,28.7,29.63,SSE,158,2.0,9.0,21,0.00,,,0.00,WUHU216HW,2013-10-29 21:01:00,
2013-10-29 15:06:00,70.9,28.9,29.63,South,180,7.0,12.0,21,0.00,,,0.00,WUHU216HW,2013-10-29 21:06:00,
2013-10-29 15:11:00,71.3,29.2,29.63,SSW,203,2.0,12.0,21,0.00,,,0.00,WUHU216HW,2013-10-29 21:11:00,
2013-10-29 15:16:00,71.3,29.2,29.62,SSE,158,2.0,11.0,21,0.00,,,0.00,WUHU216HW,2013-10-29 21:16:00,
2013-10-29 15:21:00,70.9,27.9,29.62,South,180,6.0,11.0,20,0.00,,,0.00,WUHU216HW,2013-10-29 21:21:00,
2013-10-29 15:26:00,70.7,27.7,29.62,SE,135,8.0,13.0,20,0.00,,,0.00,WUHU216HW,2013-10-29 21:26:00,
2013-10-29 15:31:00,70.7,26.1,29.62,SE,135,10.0,13.0,19,0.00,,,0.00,WUHU216HW,2013-10-29 21:31:00,
2013-10-29 15:36:00,70.6,25.9,29.62,ESE,113,7.0,17.0,19,0.00,,,0.00,WUHU216HW,2013-10-29 21:36:00,
2013-10-29 15:41:00,70.2,28.3,29.62,SSE,158,9.0,17.0,21,0.00,,,0.00,WUHU216HW,2013-10-29 21:41:00,
2013-10-29 15:46:00,70.2,27.3,29.61,SSE,158,11.0,12.0,20,0.00,,,0.00,WUHU216HW,2013-10-29 21:46:00,
2013-10-29 15:51:00,70.2,28.3,29.61,SE,135,3.0,11.0,21,0.00,,,0.00,WUHU216HW,2013-10-29 21:51:00,
2013-10-29 15:56:00,70.2,28.3,29.62,SSW,203,8.0,11.0,21,0.00,,,0.00,WUHU216HW,2013-10-29 21:56:00,
2013-10-29 16:01:00,70.0,28.2,29.62,SSE,158,6.0,16.0,21,0.00,,,0.00,WUHU216HW,2013-10-29 22:01:00,
2013-10-29 16:06:00,69.8,28.0,29.61,SSE,158,3.0,16.0,21,0.00,,,0.00,WUHU216HW,2013-10-29 22:06:00,
2013-10-29 16:11:00,69.8,29.0,29.61,East,90,10.0,14.0,22,0.00,,,0.00,WUHU216HW,2013-10-29 22:11:00,
2013-10-29 16:16:00,69.8,29.0,29.61,South,180,9.0,19.0,22,0.00,,,0.00,WUHU216HW,2013-10-29 22:16:00,
2013-10-29 16:21:00,69.7,28.9,29.61,SSW,203,7.0,19.0,22,0.00,,,0.00,WUHU216HW,2013-10-29 22:21:00,
2013-10-29 16:26:00,69.5,29.7,29.61,SSE,158,9.0,15.0,23,0.00,,,0.00,WUHU216HW,2013-10-29 22:26:00,
2013-10-29 16:31:00,69.3,29.6,29.61,ESE,113,7.0,14.0,23,0.00,,,0.00,WUHU216HW,2013-10-29 22:31:00,
2013-10-29 16:36:00,69.1,29.4,29.61,SE,135,9.0,10.0,23,0.00,,,0.00,WUHU216HW,2013-10-29 22:36:00,
2013-10-29 16:41:00,68.9,29.3,29.61,South,180,7.0,13.0,23,0.00,,,0.00,WUHU216HW,2013-10-29 22:41:00,
2013-10-29 16:46:00,68.8,29.2,29.61,South,180,10.0,17.0,23,0.00,,,0.00,WUHU216HW,2013-10-29 22:46:00,
2013-10-29 16:51:00,68.8,29.2,29.61,SSE,158,9.0,24.0,23,0.00,,,0.00,WUHU216HW,2013-10-29 22:51:00,
2013-10-29 16:56:00,68.8,29.2,29.61,ENE,68,10.0,24.0,23,0.00,,,0.00,WUHU216HW,2013-10-29 22:56:00,
2013-10-29 17:01:00,68.8,29.2,29.61,SSW,203,11.0,18.0,23,0.00,,,0.00,WUHU216HW,2013-10-29 23:01:00,
2013-10-29 17:06:00,68.6,29.0,29.61,SE,135,9.0,18.0,23,0.00,,,0.00,WUHU216HW,2013-10-29 23:06:00,
2013-10-29 17:11:00,68.6,28.0,29.60,SSE,158,9.0,18.0,22,0.00,,,0.00,WUHU216HW,2013-10-29 23:11:00,
2013-10-29 17:16:00,68.6,28.0,29.60,SE,135,10.0,18.0,22,0.00,,,0.00,WUHU216HW,2013-10-29 23:16:00,
2013-10-29 17:21:00,68.4,28.8,29.61,SE,135,5.0,17.0,23,0.00,,,0.00,WUHU216HW,2013-10-29 23:21:00,
2013-10-29 17:26:00,68.4,27.8,29.60,SSE,158,9.0,17.0,22,0.00,,,0.00,WUHU216HW,2013-10-29 23:26:00,
2013-10-29 17:31:00,68.2,28.7,29.60,SSE,158,4.0,17.0,23,0.00,,,0.00,WUHU216HW,2013-10-29 23:31:00,
2013-10-29 17:36:00,68.0,28.5,29.60,NNE,23,5.0,17.0,23,0.00,,,0.00,WUHU216HW,2013-10-29 23:36:00,
2013-10-29 17:41:00,67.9,28.4,29.60,SSE,158,7.0,15.0,23,0.00,,,0.00,WUHU216HW,2013-10-29 23:41:00,
2013-10-29 17:46:00,67.5,28.1,29.60,SSW,203,7.0,16.0,23,0.00,,,0.00,WUHU216HW,2013-10-29 23:46:00,
2013-10-29 17:51:00,67.3,27.9,29.60,SSE,158,6.0,19.0,23,0.00,,,0.00,WUHU216HW,2013-10-29 23:51:00,
2013-10-29 17:56:00,67.1,27.7,29.60,SSE,158,7.0,19.0,23,0.00,,,0.00,WUHU216HW,2013-10-29 23:56:00,
2013-10-29 18:01:00,66.8,27.5,29.61,SSE,158,13.0,14.0,23,0.00,,,0.00,WUHU216HW,2013-10-30 00:01:00,
2013-10-29 18:06:00,66.6,27.3,29.61,SSE,158,9.0,16.0,23,0.00,,,0.00,WUHU216HW,2013-10-30 00:06:00,
2013-10-29 18:11:00,66.2,28.0,29.61,SE,135,5.0,16.0,24,0.00,,,0.00,WUHU216HW,2013-10-30 00:11:00,
2013-10-29 18:16:00,66.1,27.8,29.61,ESE,113,10.0,13.0,24,0.00,,,0.00,WUHU216HW,2013-10-30 00:16:00,
2013-10-29 18:21:00,65.9,27.6,29.61,SE,135,5.0,11.0,24,0.00,,,0.00,WUHU216HW,2013-10-30 00:21:00,
2013-10-29 18:26:00,65.5,27.4,29.61,WSW,248,4.0,12.0,24,0.00,,,0.00,WUHU216HW,2013-10-30 00:26:00,
2013-10-29 18:31:00,65.2,27.1,29.61,SE,135,10.0,14.0,24,0.00,,,0.00,WUHU216HW,2013-10-30 00:31:00,
2013-10-29 18:36:00,65.2,28.1,29.62,SSW,203,6.0,14.0,25,0.00,,,0.00,WUHU216HW,2013-10-30 00:36:00,
2013-10-29 18:41:00,64.8,27.7,29.62,ESE,113,9.0,13.0,25,0.00,,,0.00,WUHU216HW,2013-10-30 00:41:00,
2013-10-29 18:46:00,64.6,27.6,29.62,SSE,158,13.0,13.0,25,0.00,,,0.00,WUHU216HW,2013-10-30 00:46:00,
2013-10-29 18:51:00,64.4,27.5,29.63,SSE,158,11.0,18.0,25,0.00,,,0.00,WUHU216HW,2013-10-30 00:51:00,
2013-10-29 18:56:00,64.1,27.2,29.63,SW,225,7.0,18.0,25,0.00,,,0.00,WUHU216HW,2013-10-30 00:56:00,
2013-10-29 19:01:00,63.9,27.0,29.63,SE,135,9.0,17.0,25,0.00,,,0.00,WUHU216HW,2013-10-30 01:01:00,
2013-10-29 19:06:00,63.7,26.8,29.63,SE,135,5.0,17.0,25,0.00,,,0.00,WUHU216HW,2013-10-30 01:06:00,
2013-10-29 19:11:00,63.5,26.7,29.63,South,180,8.0,14.0,25,0.00,,,0.00,WUHU216HW,2013-10-30 01:11:00,
2013-10-29 19:16:00,63.4,27.6,29.63,SSE,158,5.0,11.0,26,0.00,,,0.00,WUHU216HW,2013-10-30 01:16:00,
2013-10-29 19:21:00,63.2,28.4,29.63,SE,135,11.0,11.0,27,0.00,,,0.00,WUHU216HW,2013-10-30 01:21:00,
2013-10-29 19:26:00,63.0,28.2,29.63,SSE,158,5.0,15.0,27,0.00,,,0.00,WUHU216HW,2013-10-30 01:26:00,
2013-10-29 19:31:00,62.6,27.9,29.64,SSW,203,6.0,15.0,27,0.00,,,0.00,WUHU216HW,2013-10-30 01:31:00,
2013-10-29 19:36:00,62.5,27.7,29.64,SE,135,3.0,15.0,27,0.00,,,0.00,WUHU216HW,2013-10-30 01:36:00,
2013-10-29 19:41:00,62.3,27.5,29.64,SSE,158,4.0,15.0,27,0.00,,,0.00,WUHU216HW,2013-10-30 01:41:00,
2013-10-29 19:46:00,62.1,27.4,29.64,South,180,4.0,12.0,27,0.00,,,0.00,WUHU216HW,2013-10-30 01:46:00,
2013-10-29 19:51:00,61.7,27.1,29.65,South,180,9.0,12.0,27,0.00,,,0.00,WUHU216HW,2013-10-30 01:51:00,
2013-10-29 19:56:00,61.6,27.9,29.65,SSE,158,9.0,11.0,28,0.00,,,0.00,WUHU216HW,2013-10-30 01:56:00,
2013-10-29 20:01:00,61.4,27.7,29.65,SSW,203,11.0,13.0,28,0.00,,,0.00,WUHU216HW,2013-10-30 02:01:00,
2013-10-29 20:06:00,61.2,27.5,29.65,WNW,293,5.0,13.0,28,0.00,,,0.00,WUHU216HW,2013-10-30 02:06:00,
2013-10-29 20:11:00,61.0,27.5,29.65,SSE,158,2.0,11.0,28,0.00,,,0.00,WUHU216HW,2013-10-30 02:11:00,
2013-10-29 20:16:00,60.8,27.3,29.65,SSE,158,4.0,10.0,28,0.00,,,0.00,WUHU216HW,2013-10-30 02:16:00,
2013-10-29 20:21:00,60.7,27.1,29.65,ESE,113,7.0,9.0,28,0.00,,,0.00,WUHU216HW,2013-10-30 02:21:00,
2013-10-29 20:26:00,60.5,27.0,29.65,SE,135,6.0,11.0,28,0.00,,,0.00,WUHU216HW,2013-10-30 02:26:00,
2013-10-29 20:31:00,60.3,26.8,29.66,SE,135,1.0,12.0,28,0.00,,,0.00,WUHU216HW,2013-10-30 02:31:00,
2013-10-29 20:36:00,60.1,26.6,29.66,SSE,158,3.0,12.0,28,0.00,,,0.00,WUHU216HW,2013-10-30 02:36:00,
2013-10-29 20:41:00,59.9,27.5,29.66,SE,135,3.0,7.0,29,0.00,,,0.00,WUHU216HW,2013-10-30 02:41:00,
2013-10-29 20:46:00,59.8,27.4,29.66,South,180,3.0,9.0,29,0.00,,,0.00,WUHU216HW,2013-10-30 02:46:00,
2013-10-29 20:51:00,59.8,27.4,29.66,SE,135,2.0,9.0,29,0.00,,,0.00,WUHU216HW,2013-10-30 02:51:00,
2013-10-29 20:56:00,59.6,27.2,29.66,South,180,7.0,9.0,29,0.00,,,0.00,WUHU216HW,2013-10-30 02:56:00,
2013-10-29 21:01:00,59.4,27.0,29.66,SE,135,6.0,9.0,29,0.00,,,0.00,WUHU216HW,2013-10-30 03:01:00,
2013-10-29 21:06:00,59.4,27.0,29.66,SSE,158,5.0,10.0,29,0.00,,,0.00,WUHU216HW,2013-10-30 03:06:00,
2013-10-29 21:11:00,59.2,26.9,29.66,SSW,203,2.0,10.0,29,0.00,,,0.00,WUHU216HW,2013-10-30 03:11:00,
2013-10-29 21:16:00,59.0,27.7,29.66,South,180,3.0,8.0,30,0.00,,,0.00,WUHU216HW,2013-10-30 03:16:00,
2013-10-29 21:21:00,58.9,27.5,29.66,SW,225,2.0,9.0,30,0.00,,,0.00,WUHU216HW,2013-10-30 03:21:00,
2013-10-29 21:26:00,58.7,27.4,29.66,ESE,113,6.0,9.0,30,0.00,,,0.00,WUHU216HW,2013-10-30 03:26:00,
2013-10-29 21:31:00,58.7,27.4,29.66,SSE,158,2.0,7.0,30,0.00,,,0.00,WUHU216HW,2013-10-30 03:31:00,
2013-10-29 21:36:00,58.7,27.4,29.66,SSE,158,2.0,6.0,30,0.00,,,0.00,WUHU216HW,2013-10-30 03:36:00,
2013-10-29 21:41:00,58.7,27.4,29.66,South,180,4.0,6.0,30,0.00,,,0.00,WUHU216HW,2013-10-30 03:41:00,
2013-10-29 21:46:00,58.7,27.4,29.66,South,180,1.0,6.0,30,0.00,,,0.00,WUHU216HW,2013-10-30 03:46:00,
2013-10-29 21:51:00,58.7,27.4,29.66,SSE,158,0.0,6.0,30,0.00,,,0.00,WUHU216HW,2013-10-30 03:51:00,
2013-10-29 21:56:00,58.5,27.3,29.66,SSW,203,5.0,5.0,30,0.00,,,0.00,WUHU216HW,2013-10-30 03:56:00,
2013-10-29 22:01:00,58.5,27.3,29.66,SSE,158,2.0,6.0,30,0.00,,,0.00,WUHU216HW,2013-10-30 04:01:00,
2013-10-29 22:06:00,58.3,27.8,29.66,SSE,158,4.0,7.0,31,0.00,,,0.00,WUHU216HW,2013-10-30 04:06:00,
2013-10-29 22:11:00,58.3,27.1,29.66,SE,135,0.0,7.0,30,0.00,,,0.00,WUHU216HW,2013-10-30 04:11:00,
2013-10-29 22:16:00,58.1,26.9,29.66,SSE,158,3.0,7.0,30,0.00,,,0.00,WUHU216HW,2013-10-30 04:16:00,
2013-10-29 22:21:00,58.0,27.5,29.66,South,180,7.0,7.0,31,0.00,,,0.00,WUHU216HW,2013-10-30 04:21:00,
2013-10-29 22:26:00,58.0,26.7,29.67,SE,135,2.0,7.0,30,0.00,,,0.00,WUHU216HW,2013-10-30 04:26:00,
2013-10-29 22:31:00,57.6,27.1,29.66,East,90,1.0,7.0,31,0.00,,,0.00,WUHU216HW,2013-10-30 04:31:00,
2013-10-29 22:36:00,57.4,27.0,29.67,SSE,158,1.0,6.0,31,0.00,,,0.00,WUHU216HW,2013-10-30 04:36:00,
2013-10-29 22:41:00,57.4,27.0,29.67,SSE,158,2.0,6.0,31,0.00,,,0.00,WUHU216HW,2013-10-30 04:41:00,
2013-10-29 22:46:00,57.2,26.8,29.67,SE,135,1.0,6.0,31,0.00,,,0.00,WUHU216HW,2013-10-30 04:46:00,
2013-10-29 22:51:00,57.2,26.8,29.66,SSE,158,4.0,5.0,31,0.00,,,0.00,WUHU216HW,2013-10-30 04:51:00,
2013-10-29 22:56:00,57.1,26.6,29.66,SE,135,4.0,5.0,31,0.00,,,0.00,WUHU216HW,2013-10-30 04:56:00,
2013-10-29 23:01:00,57.1,26.6,29.66,ESE,113,6.0,6.0,31,0.00,,,0.00,WUHU216HW,2013-10-30 05:01:00,
2013-10-29 23:06:00,57.1,26.6,29.67,SSE,158,3.0,6.0,31,0.00,,,0.00,WUHU216HW,2013-10-30 05:06:00,
2013-10-29 23:11:00,56.9,26.5,29.66,SSE,158,5.0,8.0,31,0.00,,,0.00,WUHU216HW,2013-10-30 05:11:00,
2013-10-29 23:16:00,56.9,26.5,29.66,South,180,5.0,8.0,31,0.00,,,0.00,WUHU216HW,2013-10-30 05:16:00,
2013-10-29 23:21:00,56.9,26.5,29.66,SE,135,3.0,6.0,31,0.00,,,0.00,WUHU216HW,2013-10-30 05:21:00,
2013-10-29 23:26:00,56.7,26.3,29.66,SSE,158,3.0,6.0,31,0.00,,,0.00,WUHU216HW,2013-10-30 05:26:00,
2013-10-29 23:31:00,56.5,26.2,29.66,SE,135,1.0,5.0,31,0.00,,,0.00,WUHU216HW,2013-10-30 05:31:00,
2013-10-29 23:36:00,56.5,26.8,29.67,SSE,158,2.0,5.0,32,0.00,,,0.00,WUHU216HW,2013-10-30 05:36:00,
2013-10-29 23:41:00,56.3,26.7,29.66,SE,135,1.0,5.0,32,0.00,,,0.00,WUHU216HW,2013-10-30 05:41:00,
2013-10-29 23:46:00,56.2,26.6,29.67,South,180,3.0,5.0,32,0.00,,,0.00,WUHU216HW,2013-10-30 05:46:00,
2013-10-29 23:51:00,56.0,26.4,29.66,SSE,158,1.0,5.0,32,0.00,,,0.00,WUHU216HW,2013-10-30 05:51:00,
2013-10-29 23:56:00,56.0,26.4,29.66,SSE,158,4.0,4.0,32,0.00,,,0.00,WUHU216HW,2013-10-30 05:56:00,